Lexington, KY

7:56 PM EST on January 21, 2017 (GMT -0500)
Blue Grass Airport

Weather History for KLEX - October, 2014

Change the Weather History Date:

Tuesday, October 21, 2014

  Actual Average Record
Temperature  
Mean Temperature 54 °F 55 °F  
Max Temperature 60 °F 66 °F 85 °F (1953)
Min Temperature 48 °F 45 °F 24 °F (1952)
Degree Days  
Heating Degree Days 11 10  
Month to date heating degree days 120 155  
Since 1 July heating degree days 150 209  
Cooling Degree Days 0 0  
Month to date cooling degree days 25 23  
Year to date cooling degree days 1272 1186  
Growing Degree Days 5 (Base 50)    
Moisture  
Dew Point 44 °F    
Average Humidity 69    
Maximum Humidity 86    
Minimum Humidity 51    
Precipitation  
Precipitation 0.00 in 0.11 in 1.48 in (1929)
Month to date precipitation 3.72 2.07  
Year to date precipitation 47.80 36.65  
Snow  
Snow 0.00 in 0.00 in 0.00 in ()
Month to date snowfall 0.0 0.0  
Since 1 July snowfall 0.0 0.0  
Since 1 September snowfall 0.0 0.0  
Snow Depth 0.00 in    
Sea Level Pressure  
Sea Level Pressure 30.03 in    
Wind  
Wind Speed 7 mph (NW)    
Max Wind Speed 16 mph    
Max Gust Speed 22 mph    
Visibility 10 miles    
Events      
T = Trace of Precipitation, MM = Missing Value Source: NWS Daily Summary

Daily Weather History Graph

Daily Weather History Graph

Search for Another Location

Airport or City:

Trip Planner

Search our weather history database for the weather conditions in past years. The results will help you decide how hot, cold, wet, or windy it might be!

Date:

Astronomy

Oct. 21, 2014 Rise Set
Actual Time 7:52 AM EDT 6:52 PM EDT
Civil Twilight 7:26 AM EDT 7:19 PM EDT
Nautical Twilight 6:55 AM EDT 7:49 PM EDT
Astronomical Twilight 6:24 AM EDT 8:20 PM EDT
Moon 5:38 AM EDT (10/21) 5:44 PM EDT (10/21)
Length of Visible Light 11h 53m
Length of Day
10h 59m
Waning Crescent, 5% of the Moon is Illuminated
Oct 21
Waning Crescent
Oct 23
New
Oct 30
First Quarter
Nov 6
Full
Nov 14
Last Quarter

Hourly Weather History & Observations

Time (EDT) Temp. Dew Point Humidity Pressure Visibility Wind Dir Wind Speed Gust Speed Precip Events Conditions
12:54 AM 55.0 °F 48.9 °F 80% 29.93 in 10.0 mi SW 5.8 mph - N/A   Clear
1:54 AM 54.0 °F 48.9 °F 83% 29.93 in 10.0 mi SW 6.9 mph - N/A   Clear
2:54 AM 53.1 °F 48.9 °F 86% 29.94 in 10.0 mi WSW 4.6 mph - N/A   Mostly Cloudy
3:54 AM 53.1 °F 48.0 °F 83% 29.94 in 10.0 mi WNW 4.6 mph - N/A   Mostly Cloudy
4:54 AM 53.1 °F 48.0 °F 83% 29.94 in 10.0 mi West 3.5 mph - N/A   Mostly Cloudy
5:54 AM 53.1 °F 48.0 °F 83% 29.95 in 10.0 mi WNW 5.8 mph - N/A   Mostly Cloudy
6:54 AM 51.1 °F 46.0 °F 83% 29.97 in 10.0 mi NW 6.9 mph - N/A   Scattered Clouds
7:54 AM 50.0 °F 46.0 °F 86% 29.99 in 9.0 mi WNW 6.9 mph - N/A   Mostly Cloudy
8:54 AM 51.1 °F 46.9 °F 86% 30.01 in 8.0 mi NW 5.8 mph - N/A   Overcast
9:54 AM 53.1 °F 46.0 °F 77% 30.03 in 10.0 mi NNW 8.1 mph - N/A   Overcast
10:54 AM 54.0 °F 46.0 °F 75% 30.04 in 10.0 mi NW 11.5 mph - N/A   Overcast
11:54 AM 57.0 °F 45.0 °F 64% 30.05 in 10.0 mi NW 10.4 mph - N/A   Overcast
12:54 PM 59.0 °F 43.0 °F 55% 30.04 in 10.0 mi NNW 10.4 mph - N/A   Overcast
1:54 PM 57.9 °F 41.0 °F 53% 30.04 in 10.0 mi NW 11.5 mph - N/A   Overcast
2:54 PM 57.2 °F 41.0 °F 55% 30.05 in 10.0 mi NNW 11.5 mph 18.4 mph N/A   Overcast
3:54 PM 57.0 °F 39.9 °F 53% 30.06 in 10.0 mi NW 10.4 mph - N/A   Overcast
4:54 PM 57.0 °F 41.0 °F 55% 30.08 in 10.0 mi NNW 4.6 mph - N/A   Overcast
5:54 PM 55.9 °F 41.0 °F 57% 30.09 in 10.0 mi North 8.1 mph - N/A   Overcast
6:54 PM 55.0 °F 41.0 °F 59% 30.10 in 10.0 mi North 6.9 mph - N/A   Overcast
7:54 PM 53.1 °F 41.0 °F 64% 30.12 in 10.0 mi North 4.6 mph - N/A   Overcast
8:54 PM 53.1 °F 41.0 °F 64% 30.13 in 10.0 mi North 4.6 mph - N/A   Overcast
9:54 PM 53.1 °F 42.1 °F 66% 30.14 in 10.0 mi North 5.8 mph - N/A   Overcast
10:54 PM 52.0 °F 42.1 °F 69% 30.15 in 10.0 mi NNE 8.1 mph - N/A   Overcast
11:54 PM 50.0 °F 42.1 °F 74% 30.15 in 10.0 mi NNE 10.4 mph - N/A   Overcast